Home   Weather   Costa Mesa   Past weeks
Flag for USA

Past Weather in Costa Mesa, California, USA — Yesterday and Last 2 Weeks

Now
83 °F

Sunny.


Feels Like: 85 °F
Forecast: 81 / 67 °F
Wind: 5 mph from Southwest

Location: John Wayne Airport-Orange County Airport

Current Time: Aug 25, 2019 at 12:01:05 pm

Latest Report: Aug 25, 2019 at 10:53 am


Visibility: 10 mi

Pressure: 29.96 "Hg

Humidity: 55%

Dew Point: 65 °F

Location of Costa MesaLocation

Past Weather in Costa Mesa — Graph

°F

Costa Mesa Temperature Yesterday

Maximum temperature yesterday: 85 °F (at 2:53 pm)
Minimum temperature yesterday: 68 °F (at 3:53 am)
Average temperature yesterday: 74 °F

High & Low Weather Summary for the Past Weeks

 TemperatureHumidityPressure
High85 °F (Aug 24, 2:53 pm)85% (Aug 11, 1:29 am)30.00 "Hg (Aug 11, 1:29 am)
Low65 °F (Aug 14, 4:53 am)43% (Aug 21, 3:53 pm)29.75 "Hg (Aug 21, 4:53 pm)
Average71 °F69%29.90 "Hg
* Reported Aug 10 9:53 am — Aug 25 9:53 am, Costa Mesa. Weather by CustomWeather, © 2019

Note: Actual official high and low records may vary slightly from our data, if they occured in-between our weather recording intervals... More about our weather records

Advertising

Costa Mesa Weather History for the Previous 24 Hours

Scroll right to see more
 ConditionsComfort  
Time TempWeatherWind HumidityBarometerVisibility
9:53 am
Sun, Aug 25
78 °FSunny.No wind64%29.97 "Hg9 mi
8:53 am75 °FSunny.3 mph69%29.98 "Hg9 mi
7:53 am71 °FSunny.No wind76%29.97 "Hg8 mi
6:53 am69 °FSunny.No wind81%29.96 "Hg7 mi
5:53 am69 °FClear.No wind81%29.95 "Hg10 mi
4:53 am70 °FClear.No wind79%29.94 "Hg9 mi
3:53 am70 °FClear.No wind79%29.94 "Hg9 mi
2:53 am70 °FClear.No wind79%29.95 "Hg9 mi
2:04 am71 °FPassing clouds.No wind76%29.95 "Hg9 mi
1:53 am71 °FPassing clouds.No wind76%29.95 "Hg9 mi
12:53 am71 °FOvercast.No wind78%29.96 "Hg9 mi
11:53 pm
Sat, Aug 24
71 °FOvercast.3 mph78%29.96 "Hg9 mi
11:20 pm71 °FPassing clouds.No wind78%29.97 "Hg9 mi
11:07 pm71 °FPassing clouds.3 mph78%29.96 "Hg9 mi
10:53 pm71 °FPassing clouds.3 mph78%29.96 "Hg9 mi
10:27 pm71 °FPassing clouds.5 mph78%29.96 "Hg9 mi
9:53 pm71 °FPassing clouds.5 mph78%29.96 "Hg9 mi
9:35 pm71 °FPassing clouds.6 mph78%29.96 "Hg9 mi
8:53 pm71 °FPassing clouds.8 mph78%29.94 "Hg9 mi
7:53 pm72 °FPassing clouds.10 mph76%29.92 "Hg10 mi
6:53 pm76 °FPassing clouds.10 mph67%29.90 "Hg10 mi
5:53 pm80 °FSunny.10 mph56%29.89 "Hg10 mi
4:53 pm82 °FPassing clouds.9 mph53%29.89 "Hg10 mi
3:53 pm84 °FPassing clouds.10 mph48%29.89 "Hg10 mi
2:53 pm85 °FPassing clouds.7 mph48%29.90 "Hg10 mi
1:53 pm83 °FSunny.9 mph50%29.91 "Hg10 mi
12:53 pm82 °FSunny.9 mph53%29.91 "Hg10 mi
Weather by CustomWeather, © 2019

See weather overview